• In Netherlands
  • List of Countries
  • For 7 days
  • Water Temperature
  • Satellite Maps
  • Weather Map
  • Weather Widgets
  • user-avatar
    Login

    Hourly Weather Eisenstadt

    Today, 19 September, Tuesday

    Time Temperature Precipitation Wind Pressure Humidity
    00:00 +10°C° 0.5 mm 2 mps 722 mmHg 87%
    01:00 +10°C° 0 mm 2 mps 722 mmHg 88%
    02:00 +10°C° 1.6 mm 2 mps 721 mmHg 89%
    03:00 +9°C° 1.6 mm 2 mps 721 mmHg 89%
    04:00 +9°C° 1.6 mm 2 mps 721 mmHg 90%
    05:00 +9°C° 2.2 mm 3 mps 721 mmHg 91%
    06:00 +9°C° 2.2 mm 3 mps 721 mmHg 91%
    07:00 +8°C° 2.2 mm 3 mps 720 mmHg 92%
    08:00 +8°C° 2.4 mm 3 mps 720 mmHg 92%
    09:00 +7°C° 2.4 mm 4 mps 720 mmHg 92%
    10:00 +7°C° 2.4 mm 4 mps 720 mmHg 93%
    11:00 +8°C° 1.8 mm 4 mps 720 mmHg 92%
    12:00 +8°C° 1.8 mm 4 mps 720 mmHg 92%
    13:00 +8°C° 1.8 mm 4 mps 720 mmHg 91%
    14:00 +8°C° 2.4 mm 4 mps 719 mmHg 92%
    15:00 +8°C° 2.4 mm 4 mps 719 mmHg 92%
    16:00 +8°C° 2.4 mm 4 mps 719 mmHg 93%
    17:00 +8°C° 2.8 mm 4 mps 719 mmHg 93%
    18:00 +8°C° 2.8 mm 4 mps 719 mmHg 93%
    19:00 +8°C° 2.8 mm 4 mps 719 mmHg 94%
    20:00 +8°C° 1.4 mm 4 mps 719 mmHg 94%
    21:00 +8°C° 1.4 mm 4 mps 719 mmHg 94%
    22:00 +8°C° 1.4 mm 4 mps 719 mmHg 94%
    23:00 +8°C° 1.5 mm 4 mps 719 mmHg 94%

    Tomorrow, 20 September, Wednesday

    Time Temperature Precipitation Wind Pressure Humidity
    00:00 +8°C° 1.5 mm 4 mps 719 mmHg 94%
    01:00 +8°C° 1.5 mm 4 mps 720 mmHg 94%
    02:00 +7°C° 0.9 mm 4 mps 719 mmHg 93%
    03:00 +7°C° 0.9 mm 5 mps 719 mmHg 92%
    04:00 +7°C° 0.9 mm 5 mps 719 mmHg 91%
    05:00 +7°C° 0.5 mm 5 mps 720 mmHg 91%
    06:00 +7°C° 0.5 mm 6 mps 720 mmHg 90%
    07:00 +7°C° 0.5 mm 6 mps 720 mmHg 89%
    08:00 +8°C° 0.3 mm 6 mps 720 mmHg 87%
    09:00 +8°C° 0.3 mm 7 mps 721 mmHg 86%
    10:00 +8°C° 0.3 mm 7 mps 721 mmHg 84%
    11:00 +8°C° 0.2 mm 7 mps 721 mmHg 83%
    12:00 +9°C° 0.2 mm 7 mps 721 mmHg 82%
    13:00 +9°C° 0.2 mm 7 mps 721 mmHg 81%
    14:00 +9°C° 0.1 mm 7 mps 721 mmHg 80%
    15:00 +9°C° 0.1 mm 7 mps 721 mmHg 79%
    16:00 +9°C° 0.1 mm 6 mps 721 mmHg 78%
    17:00 +9°C° 0.1 mm 6 mps 722 mmHg 80%
    18:00 +9°C° 0.1 mm 5 mps 722 mmHg 81%
    19:00 +8°C° 0.1 mm 5 mps 722 mmHg 82%
    20:00 +8°C° 0.1 mm 5 mps 722 mmHg 82%
    21:00 +8°C° 0.1 mm 5 mps 722 mmHg 82%
    22:00 +8°C° 0.1 mm 5 mps 723 mmHg 83%
    23:00 +8°C° 0 mm 5 mps 723 mmHg 83%

    Day after tomorrow, 21 September, Thursday

    Time Temperature Precipitation Wind Pressure Humidity
    00:00 +8°C° 0 mm 5 mps 723 mmHg 84%
    01:00 +7°C° 0 mm 5 mps 723 mmHg 85%
    02:00 +7°C° 0 mm 5 mps 723 mmHg 85%
    03:00 +7°C° 0 mm 5 mps 723 mmHg 84%
    04:00 +7°C° 0 mm 5 mps 723 mmHg 84%
    05:00 +8°C° 0 mm 5 mps 723 mmHg 83%
    06:00 +8°C° 0 mm 5 mps 723 mmHg 82%
    07:00 +8°C° 0 mm 6 mps 723 mmHg 81%
    08:00 +9°C° 0 mm 6 mps 723 mmHg 75%
    09:00 +10°C° 0 mm 6 mps 723 mmHg 70%
    10:00 +12°C° 0 mm 7 mps 723 mmHg 65%
    11:00 +12°C° 0 mm 7 mps 723 mmHg 62%
    12:00 +14°C° 0 mm 7 mps 723 mmHg 60%
    13:00 +15°C° 0 mm 7 mps 723 mmHg 57%
    14:00 +15°C° 0 mm 7 mps 722 mmHg 58%
    15:00 +15°C° 0 mm 6 mps 722 mmHg 59%
    16:00 +15°C° 0 mm 6 mps 722 mmHg 61%
    17:00 +14°C° 0 mm 5 mps 722 mmHg 64%
    18:00 +12°C° 0 mm 5 mps 722 mmHg 68%
    19:00 +10°C° 0 mm 5 mps 722 mmHg 71%
    20:00 +10°C° 0.3 mm 5 mps 723 mmHg 73%
    21:00 +10°C° 0.3 mm 5 mps 723 mmHg 75%
    22:00 +10°C° 0.3 mm 5 mps 723 mmHg 78%
    23:00 +10°C° 0.1 mm 5 mps 723 mmHg 78%

    22 September, Friday

    Time Temperature Precipitation Wind Pressure Humidity
    00:00 +9°C° 0.1 mm 5 mps 723 mmHg 79%
    01:00 +9°C° 0.1 mm 5 mps 723 mmHg 80%
    02:00 +9°C° 0.1 mm 5 mps 723 mmHg 81%
    03:00 +9°C° 0.1 mm 5 mps 723 mmHg 81%
    04:00 +9°C° 0.1 mm 5 mps 723 mmHg 82%
    05:00 +9°C° 0.1 mm 5 mps 723 mmHg 82%
    06:00 +9°C° 0.1 mm 5 mps 723 mmHg 82%
    07:00 +9°C° 0.1 mm 5 mps 723 mmHg 82%
    08:00 +10°C° 0 mm 5 mps 724 mmHg 78%
    09:00 +12°C° 0 mm 5 mps 724 mmHg 74%
    10:00 +13°C° 0 mm 6 mps 724 mmHg 70%
    11:00 +14°C° 0 mm 5 mps 724 mmHg 68%
    12:00 +14°C° 0 mm 5 mps 724 mmHg 67%
    13:00 +15°C° 0 mm 5 mps 724 mmHg 65%
    14:00 +14°C° 0.1 mm 5 mps 724 mmHg 67%
    15:00 +14°C° 0.1 mm 4 mps 724 mmHg 69%
    16:00 +14°C° 0.1 mm 4 mps 724 mmHg 72%
    17:00 +13°C° 0 mm 4 mps 724 mmHg 75%
    18:00 +12°C° 0 mm 3 mps 725 mmHg 78%
    19:00 +11°C° 0 mm 3 mps 725 mmHg 82%
    20:00 +11°C° 0 mm 3 mps 725 mmHg 83%
    21:00 +10°C° 0 mm 3 mps 725 mmHg 84%
    22:00 +10°C° 0 mm 2 mps 725 mmHg 86%
    23:00 +10°C° 0 mm 2 mps 725 mmHg 85%

    23 September, Saturday

    Time Temperature Precipitation Wind Pressure Humidity
    00:00 +10°C° 0 mm 2 mps 725 mmHg 84%
    01:00 +10°C° 0 mm 3 mps 725 mmHg 83%
    02:00 +10°C° 0 mm 3 mps 725 mmHg 84%
    03:00 +10°C° 0 mm 3 mps 724 mmHg 84%
    04:00 +10°C° 0 mm 3 mps 724 mmHg 84%
    05:00 +10°C° 0 mm 3 mps 724 mmHg 83%
    06:00 +10°C° 0 mm 3 mps 724 mmHg 82%
    07:00 +11°C° 0 mm 3 mps 724 mmHg 81%
    08:00 +12°C° 0 mm 3 mps 724 mmHg 75%
    09:00 +14°C° 0 mm 4 mps 723 mmHg 69%
    10:00 +15°C° 0 mm 4 mps 723 mmHg 64%
    11:00 +15°C° 0.4 mm 4 mps 723 mmHg 64%
    12:00 +15°C° 0.4 mm 4 mps 722 mmHg 64%
    13:00 +17°C° 0.4 mm 3 mps 722 mmHg 65%
    14:00 +16°C° 1.6 mm 3 mps 722 mmHg 72%
    15:00 +14°C° 1.6 mm 3 mps 722 mmHg 80%
    16:00 +13°C° 1.6 mm 3 mps 721 mmHg 87%
    17:00 +12°C° 1.3 mm 3 mps 721 mmHg 89%
    18:00 +12°C° 1.3 mm 3 mps 722 mmHg 90%
    19:00 +12°C° 1.3 mm 3 mps 722 mmHg 92%
    20:00 +12°C° 0.3 mm 3 mps 722 mmHg 92%
    21:00 +13°C° 0.3 mm 2 mps 722 mmHg 92%
    22:00 +12°C° 0.3 mm 2 mps 722 mmHg 93%
    23:00 +12°C° 0.1 mm 2 mps 722 mmHg 93%

    24 September, Sunday

    Time Temperature Precipitation Wind Pressure Humidity
    00:00 +12°C° 0.1 mm 2 mps 722 mmHg 93%
    01:00 +12°C° 0.1 mm 2 mps 722 mmHg 94%
    02:00 +12°C° 0.1 mm 2 mps 722 mmHg 93%
    03:00 +12°C° 0.1 mm 2 mps 722 mmHg 93%
    04:00 +10°C° 0.1 mm 2 mps 722 mmHg 93%
    05:00 +12°C° 0 mm 2 mps 722 mmHg 92%
    06:00 +12°C° 0 mm 2 mps 723 mmHg 91%
    07:00 +12°C° 0 mm 1 mps 723 mmHg 90%
    08:00 +14°C° 0.1 mm 1 mps 723 mmHg 86%
    09:00 +15°C° 0.1 mm 1 mps 723 mmHg 82%
    10:00 +16°C° 0.1 mm 1 mps 724 mmHg 78%
    11:00 +16°C° 0.4 mm 2 mps 724 mmHg 77%
    12:00 +17°C° 0.4 mm 2 mps 723 mmHg 76%
    13:00 +17°C° 0.4 mm 2 mps 723 mmHg 75%
    14:00 +18°C° 0.4 mm 1 mps 723 mmHg 75%
    15:00 +18°C° 0.4 mm 1 mps 723 mmHg 75%
    16:00 +18°C° 0.4 mm 1 mps 723 mmHg 74%
    17:00 +16°C° 0.3 mm 1 mps 724 mmHg 79%
    18:00 +15°C° 0.3 mm 1 mps 724 mmHg 83%
    19:00 +13°C° 0.3 mm 1 mps 724 mmHg 88%
    20:00 +13°C° 0.6 mm 1 mps 724 mmHg 89%
    21:00 +13°C° 0.6 mm 1 mps 724 mmHg 90%
    22:00 +13°C° 0.6 mm 1 mps 725 mmHg 92%
    23:00 +13°C° 0.4 mm 1 mps 725 mmHg 92%
    Show more